DateTimeUTC,F1_A11,F1_S11,BsB_S11,BsG_S11,BsR_S11,BbsB_S11,BbsG_S11,BbsR_S11,BaB_A11,BaG_A11,BaR_A11,Tu_S11,T_S11,Uu_S11,U_S11,P_S11,T1_A11
2021-03-20T21:00:00Z,00000200,21000000,,,,,,,0000.05,-000.46,-000.23,16.7,24.2,,00.0,0642.2,30.9
2021-03-20T21:01:00Z,00000200,21000000,,,,,,,-000.08,0000.32,0000.55,16.7,24.2,,00.0,0642.1,30.9
2021-03-20T21:02:00Z,00000200,21000000,,,,,,,-000.08,-000.26,-000.49,16.7,24.2,,00.0,0642.1,30.9
2021-03-20T21:03:00Z,00000200,61000000,,,,,,,0000.20,0000.15,0000.05,16.7,24.2,,00.0,0642.1,30.9
2021-03-20T21:04:00Z,00000200,41000000,0000.89,0000.95,0000.21,-000.11,0000.10,0000.03,0000.87,0000.69,0000.48,16.7,23.9,,00.0,0643.0,30.9
2021-03-20T21:05:00Z,00000200,01000000,0000.81,0000.89,0000.43,0000.08,0000.16,0000.10,0000.65,0000.77,0000.64,16.7,23.8,,00.0,0643.1,30.9
2021-03-20T21:06:00Z,00000200,01000000,0001.98,0000.83,0000.44,0000.49,0000.18,0000.20,0000.34,0000.12,0000.07,16.7,23.8,,00.0,0643.1,30.9
2021-03-20T21:07:00Z,00000200,01000000,0001.30,0001.32,0000.60,-000.23,0000.26,0000.11,0000.88,0001.07,0000.77,16.8,23.8,,00.0,0643.1,30.9
2021-03-20T21:08:00Z,00000200,01000000,0000.91,0000.91,0000.41,0000.38,0000.31,0000.28,0000.32,0000.30,0000.24,16.9,23.9,,00.0,0643.1,30.9
2021-03-20T21:09:00Z,00000200,01000000,0000.76,0000.83,0000.15,0000.48,0000.22,-000.03,0000.12,0000.40,0000.45,16.9,23.9,,00.0,0643.1,31.0
2021-03-20T21:10:00Z,00000200,01000000,0001.46,0000.92,0000.21,0000.29,0000.07,0000.04,0000.58,0000.23,0000.54,17.0,23.9,,00.0,0643.1,31.0
2021-03-20T21:11:00Z,00000200,01000000,0000.96,0000.86,0000.36,-000.02,0000.24,-000.20,0000.62,0000.57,-000.24,17.1,23.9,,00.0,0643.1,31.0
2021-03-20T21:12:00Z,00000200,01000000,0000.89,0000.91,0000.50,0000.27,-000.01,-000.00,0000.36,0000.66,0001.04,17.1,24.0,,00.0,0643.1,31.0
2021-03-20T21:13:00Z,00000200,01000000,0000.92,0001.01,0000.54,-000.20,0000.07,0000.18,0000.82,0000.35,0000.09,17.2,24.0,,00.0,0643.1,31.0
2021-03-20T21:14:00Z,00000200,01000000,0001.02,0000.70,0000.54,0000.53,0000.11,0000.53,0000.45,0000.81,0000.40,17.3,24.0,,00.0,0643.2,31.0
2021-03-20T21:15:00Z,00000200,01000000,0001.08,0000.91,0000.22,-000.37,0000.13,0000.21,0000.20,0000.02,-000.06,17.3,24.1,,00.0,0643.2,31.0
2021-03-20T21:16:00Z,00000200,01000000,0000.68,0000.87,0000.41,0000.12,0000.19,0000.08,0000.50,0000.44,0000.71,17.4,24.1,,00.0,0643.2,31.0
2021-03-20T21:17:00Z,00000200,01000000,0001.45,0001.10,0000.07,0000.24,0000.19,-000.28,0000.06,-000.42,-000.37,17.4,24.1,,00.0,0643.2,31.0
2021-03-20T21:18:00Z,00000200,01000000,0000.75,0001.11,0000.55,0000.41,0000.25,0000.28,0000.51,0000.52,0000.37,17.4,24.2,,00.0,0643.2,31.0
2021-03-20T21:19:00Z,00000200,01000000,0000.92,0000.90,0000.25,-000.03,0000.04,0000.39,0000.32,0000.69,0000.13,17.4,24.1,,00.0,0643.2,31.0
2021-03-20T21:20:00Z,00000200,01000000,0001.35,0000.80,0000.24,-000.11,0000.29,0000.36,0000.36,-000.11,-000.13,17.3,24.1,,00.0,0643.2,31.0
2021-03-20T21:21:00Z,00000200,01000000,0001.54,0001.14,0000.47,-000.30,0000.43,0000.21,0000.38,0000.63,0000.61,17.3,24.1,,00.0,0643.2,31.0
2021-03-20T21:22:00Z,00000200,01000000,0000.67,0000.51,0000.37,0000.53,0000.30,0000.26,0000.58,0000.04,0000.36,17.3,24.1,,00.0,0643.2,31.0
2021-03-20T21:23:00Z,00000200,01000000,0001.06,0000.99,0000.30,0000.18,0000.06,-000.07,-000.04,0000.47,-000.07,17.2,24.1,,00.0,0643.2,31.0
2021-03-20T21:24:00Z,00000200,01000000,0001.50,0000.81,0000.41,0000.00,0000.09,-000.04,0000.43,0000.45,0000.26,17.2,24.1,,00.0,0643.2,31.0
2021-03-20T21:25:00Z,00000200,01000000,0000.91,0000.69,0000.52,-000.06,0000.05,0000.15,0000.06,0000.15,0000.18,17.1,24.0,,00.0,0643.2,31.0
2021-03-20T21:26:00Z,00000200,01000000,0001.16,0000.97,0000.50,0000.23,0000.06,0000.45,0000.63,0000.18,0000.42,17.1,24.0,,00.0,0643.2,31.0
2021-03-20T21:27:00Z,00000200,01000000,0000.77,0001.09,0000.72,0000.14,0000.13,0000.28,0000.46,0000.40,-000.05,17.0,24.0,,00.0,0643.2,30.9
2021-03-20T21:28:00Z,00000200,01000000,0001.38,0000.98,0000.60,0000.12,-000.04,0000.01,0000.17,0000.46,0000.69,17.0,24.0,,00.0,0643.2,30.9
2021-03-20T21:29:00Z,00000200,01000000,0000.39,0001.14,0000.41,0000.16,0000.34,0000.21,0000.59,0000.40,0000.20,16.9,23.9,,00.0,0643.2,30.9
2021-03-20T21:30:00Z,00000200,01000000,0001.19,0001.00,0000.75,-000.21,0000.31,0000.09,0000.47,0000.16,0000.14,16.9,23.9,,00.0,0643.2,30.9
2021-03-20T21:31:00Z,00000200,01000000,0000.59,0000.83,0000.30,-000.12,0000.25,0000.10,0000.05,0000.43,0000.06,16.9,23.9,,00.0,0643.2,30.9
2021-03-20T21:32:00Z,00000200,01000000,0000.54,0000.91,0000.42,-000.12,0000.13,0000.27,0000.58,0000.51,0000.66,16.8,23.9,,00.0,0643.2,30.9
2021-03-20T21:33:00Z,00000200,01000000,0000.93,0000.82,0000.19,-000.03,0000.16,-000.07,0000.63,0000.41,0000.41,16.8,23.8,,00.0,0643.2,30.9
2021-03-20T21:34:00Z,00000200,01000000,0001.04,0000.99,0000.51,0000.21,0000.06,0000.07,0000.43,0000.53,-000.25,16.8,23.8,,00.0,0643.2,30.9
2021-03-20T21:35:00Z,00000200,01000000,0001.22,0000.81,0000.39,0000.18,0000.10,0000.11,0000.60,0000.21,0000.81,16.8,23.8,,00.0,0643.2,30.9
2021-03-20T21:36:00Z,00000200,01000000,0001.10,0001.07,0000.41,-000.57,0000.23,0000.16,0000.81,0000.55,-000.17,16.8,23.8,,00.0,0643.2,30.9
2021-03-20T21:37:00Z,00000200,01000000,0001.38,0001.08,0000.27,-000.26,0000.06,-000.11,0000.57,0000.97,0001.11,16.8,23.8,,00.0,0643.2,30.9
2021-03-20T21:38:00Z,00000200,01000000,0000.99,0000.96,0000.04,0000.18,0000.19,0000.20,0000.14,-000.27,0000.10,16.9,23.8,,00.0,0643.2,30.9
2021-03-20T21:39:00Z,00000200,01000000,0001.01,0001.10,0000.20,0000.03,-000.01,-000.01,0000.25,0000.67,0000.28,16.9,23.8,,00.0,0643.2,31.0
2021-03-20T21:40:00Z,00000200,01000000,0001.35,0001.02,0000.47,0000.26,-000.10,0000.09,0000.70,0000.37,0000.27,17.0,23.8,,00.0,0643.2,31.0
2021-03-20T21:41:00Z,00000200,01000000,0000.71,0001.07,0000.47,0000.30,0000.07,0000.06,0000.16,0000.54,0000.14,17.0,23.9,,00.0,0643.2,31.0
2021-03-20T21:42:00Z,00000200,01000000,0000.71,0000.95,0000.30,-000.38,0000.47,-000.18,0000.99,0000.41,0000.34,17.1,23.9,,00.0,0643.2,31.0
2021-03-20T21:43:00Z,00000200,01000000,0001.30,0001.01,0000.33,0000.76,0000.09,-000.00,-000.41,0000.39,0000.05,17.1,23.9,,00.0,0643.2,31.0
2021-03-20T21:44:00Z,00000200,01000000,0000.44,0000.96,0000.35,0000.17,0000.18,0000.21,0000.59,-000.03,0000.50,17.1,23.9,,00.0,0643.1,31.0
2021-03-20T21:45:00Z,00000200,01000000,0000.72,0000.69,0000.19,0000.00,0000.18,-000.10,0000.50,0000.28,0000.33,17.0,23.9,,00.0,0643.2,31.0
2021-03-20T21:46:00Z,00000200,01000000,0001.13,0000.72,0000.45,0000.35,0000.08,0000.28,0000.14,0000.51,-000.07,17.0,23.9,,00.0,0643.2,31.0
2021-03-20T21:47:00Z,00000200,01000000,0001.17,0000.94,0000.40,-000.05,0000.31,0000.07,0000.80,0000.60,0000.65,16.9,23.9,,00.0,0643.2,31.0
2021-03-20T21:48:00Z,00000200,01000000,0001.46,0000.91,0000.27,0000.23,0000.19,0000.32,-000.24,-000.52,-000.11,16.9,23.9,,00.0,0643.2,30.9
2021-03-20T21:49:00Z,00000200,01000000,0000.90,0001.12,0000.44,-000.17,0000.16,0000.22,0000.57,0000.70,-000.01,16.9,23.8,,00.0,0643.1,30.9
2021-03-20T21:50:00Z,00000200,01000000,0001.06,0000.79,0000.48,-000.28,0000.07,-000.07,0000.44,0000.35,0000.71,16.9,23.8,,00.0,0643.1,30.9
2021-03-20T21:51:00Z,00000200,01000000,0000.88,0000.94,0000.38,-000.11,0000.25,0000.27,0000.67,0000.84,0000.23,16.9,23.8,,00.0,0643.1,30.9
2021-03-20T21:52:00Z,00000200,01000000,0000.40,0000.94,0000.40,-000.03,0000.11,-000.08,0000.13,-000.03,0000.14,16.9,23.8,,00.0,0643.1,30.9
2021-03-20T21:53:00Z,00000200,01000000,0000.53,0000.86,0000.33,0000.23,0000.07,-000.01,0000.66,0000.49,0000.54,17.0,23.8,,00.0,0643.2,31.0
2021-03-20T21:54:00Z,00000200,01000000,0000.76,0001.00,0000.22,-000.07,0000.15,0000.01,0000.46,0000.59,0000.45,17.1,23.8,,00.0,0643.2,31.0
2021-03-20T21:55:00Z,00000200,01000000,0000.46,0000.96,0000.26,-000.44,0000.27,0000.06,0000.05,0000.15,0000.21,17.1,23.9,,00.0,0643.2,31.0
2021-03-20T21:56:00Z,00000200,01000000,0001.00,0000.92,0000.37,0000.04,0000.11,0000.22,0000.16,0000.20,-000.44,17.2,23.9,,00.0,0643.2,31.0
2021-03-20T21:57:00Z,00000200,41000000,,,,,,,0000.69,0000.75,0000.99,17.2,24.0,,00.0,0643.3,31.0
2021-03-20T21:58:00Z,00000200,61000000,,,,,,,-000.64,-000.50,-000.91,16.9,24.1,,00.0,0642.3,31.0
2021-03-20T21:59:00Z,00000200,21000000,,,,,,,-000.47,-000.59,0000.03,16.9,24.2,,00.0,0642.3,31.0
